www.pogodaiklimat.ru

Погода и климат >> Архив погоды >> Китай >> Nanyue


ПОГОДА в Nanyue

  • Прогноз погоды в Nanyue
  • Монитор погоды в Nanyue
  • Климат города

АРХИВ ПОГОДЫ в Nanyue

Время (UTC), дата Ветер
(напр.,м/с)
 
Видим.   Явления Облачность Т
(С)
Тd
(С)
f
(%)
Тe
(С)
Тes
(С)
Комфортность P
(гПа)
Po
(гПа)
Тmin
(С)
Tmax
(С)
R
(мм)
S
(см)
09 16.03 СВ 2 100 м туман {дождь} ?/? +2.5 +2.5 100 -1 -1 1021.0 1021.0
12 16.03 В 4 <100 м туман {дождь} ?/? +2.2 +2.2 100 -3 -3 1022.6 1023.0 0.1
18 16.03 штиль 0 <100 м туман ?/? +4.5 +4.5 100 +3 +3 1020.7 1021.0 +4.5 7
21 16.03 штиль 0 <100 м туман ?/? +3.6 +3.6 100 +2 +2 1019.5 1020.0
00 17.03 ЮВ 3 <100 м туман ?/? +3.4 +3.4 100 -1 -1 1021.0 1021.0 1
03 17.03 ЮЗ 2 <100 м туман ?/? +4.6 +4.6 100 +2 +2 1021.5 1022.0
06 17.03 Ю 2 <100 м туман {дождь} ?/? +5.9 +5.9 100 +3 +3 1018.9 1019.0 +1.6 0.1
09 17.03 С 1 <100 м туман ?/? +5.4 +5.4 100 +4 +4 1019.3 1019.0
12 17.03 С 2 500 м слабый дождь {туман} 10/10 100 м
[]
+7.1 +7.1 100 +5 +5 1020.0 1020.0 1
18 17.03 штиль 0 100 м туман ?/? +3.5 +3.5 100 +2 +2 1021.8 1022.0 +7.4 1
21 17.03 штиль 0 <100 м туман ?/? +2.8 +2.8 100 +1 +1 1021.9 1022.0
00 18.03 С 3 <100 м туман ?/? +2.6 +2.6 100 -2 -2 1023.6 1024.0 2
03 18.03 В 3 300 м туман {дождь} 10/10 200 м
[]
+5.6 +5.6 100 +2 +2 1023.1 1023.0
06 18.03 Ю 3 100 м слабый дождь {туман} ?/? +6.4 +6.4 100 +3 +3 1022.1 1022.0 +2.1 2
09 18.03 Ю 6 100 м туман {дождь} ?/? +5.3 +5.3 100 0 0 1021.0 1021.0
12 18.03 ЮВ 5 <100 м туман {дождь} ?/? +5.3 +5.3 100 0 0 1021.3 1021.0 0.0
18 18.03 штиль 0 <100 м туман ?/? +8.8 +8.8 100 +8 +8 1020.4 1020.0 +9.1 0.1
21 18.03 Ю 8 <100 м туман ?/? +10.4 +10.4 100 +6 +6 1018.6 1019.0
00 19.03 ЮЗ 7
{18}
<100 м туман ?/? +9.8 +9.8 100 +6 +6 1020.4 1020.0 0.7
03 19.03 Ю 9 100 м туман {дождь} ?/? +11.0 +11.0 100 +7 +7 1020.0 1020.0
06 19.03 ЮЗ 8
{20}
100 м туман {дождь} ?/? +12.3 +12.3 100 +9 +9 1016.4 1016.0 +4.3 0.8
09 19.03 ЮЗ 17
{21}
<100 м туман ?/? +12.4 +12.4 100 +8 +8 1014.7 1015.0
12 19.03 ЮЗ 13
{28}
<100 м туман ?/? +12.4 +12.4 100 +8 +8 1014.9 1015.0
18 19.03 ЮЗ 6
{21}
<100 м туман ?/? +9.0 +9.0 100 +5 +5 1015.4 873.4 +13.0
21 19.03 З 7
{19}
100 м туман ?/? +9.5 +9.5 100 +5 +5 1016.7 1017.0
00 20.03 З 2 100 м слабый дождь ?/? +8.6 +8.6 100 +7 +7 1018.6 1043.1 20
03 20.03 С 5 <100 м туман {дождь} ?/? +4.8 +4.8 100 -0 -0 1020.8 1021.0
06 20.03 С 4 <100 м туман {дождь} ?/? +5.0 +5.0 100 +1 +1 1019.9 1020.0 +3.9 2
09 20.03 С 5 100 м слабый дождь {туман} ?/? +3.5 +3.5 100 -2 -2 1019.9 1020.0
12 20.03 С 7 н/о дымка {дождь, туман} 10/10 200 м
[]
+4.3 +4.3 100 -2 -2 1021.6 1022.0 2
18 20.03 С 7 <100 м туман ?/? +3.3 +3.3 100 -3 -3 1023.4 1023.0 +9.8
21 20.03 С 7 <100 м туман ?/? +2.5 +2.5 100 -4 -4 1023.6 1024.0
00 21.03 С 7 <100 м слабый дождь ?/? +2.2 +2.2 100 -5 -5 1024.5 1025.0 2
03 21.03 С 3 <100 м слабый дождь {туман} ?/? +2.7 +2.7 100 -2 -2 1024.7 1025.0
06 21.03 В 4 <100 м слабый дождь {туман} ?/? +5.4 +5.4 100 +1 +1 1021.0 1021.0 +2.2 4
09 21.03 В 4 <100 м слабый дождь {туман} ?/? +4.5 +4.5 100 -0 -0 1019.8 1020.0
12 21.03 В 5 <100 м слабый дождь {туман} ?/? +4.4 +4.4 100 -1 -1 1019.6 1020.0 5
18 21.03 штиль 0 <100 м туман ?/? +4.0 +4.0 100 +3 +3 1017.4 872.3 +8.0 27
21 21.03 Ю 7 <100 м туман ?/? +6.8 +6.8 100 +2 +2 1014.3 1014.0
00 22.03 ЮЗ 8 400 м слабый дождь ?/? +8.9 +8.9 100 +4 +4 1016.0 1038.7 13
03 22.03 З 3 300 м слабый дождь {туман} 10/10 100 м
[]
+8.7 +8.7 100 +6 +6 1015.9 1016.0
06 22.03 З 4 100 м слабый дождь {туман} ?/? +7.8 +7.8 100 +4 +4 1016.3 1016.0 +3.0 5
09 22.03 ЮЗ 5 30 км в посл. час туман {дождь} 10/10 300 м
[]
+8.0 +8.0 100 +4 +4 1014.4 1014.0
12 22.03 З 3 1000 м в посл. час туман {дождь} 10/10 200 м
[]
+7.0 +7.0 100 +4 +4 1016.2 1016.0 0.0
15 22.03 З 3 1000 м в посл. час туман {дождь} 10/10 200 м
[]
+7.0 +7.0 100 +4 +4 1016.2 1016.0 0.0
18 22.03 штиль 0 <100 м туман ?/? +6.6 +6.6 100 +5 +5 1018.5 1019.0 +9.1
21 22.03 штиль 0 <100 м туман ?/? +7.8 +7.8 100 +7 +7 1016.9 1017.0
00 23.03 ЮЗ 2 <100 м туман ?/? +8.3 +8.3 100 +6 +6 1018.8 874.9
03 23.03 Ю 6 100 м туман ?/? +9.8 +9.8 100 +6 +6 1019.5 1020.0

 

Местоположение метеостанции Nanyue (Китай): широта 27.30 долгота 112.70 высота над уровнем моря 1268 м.

В архиве по умолчанию представлена погода в Nanyue за последнюю неделю. Архивные данные за месяц целиком и за предыдущие месяцы, начиная с января 2011 года, Вы можете получить, выбрав интересующий диапазон дат из раскрывающегося списка и нажав кнопку "Ввод!".

Внимание! Время в таблицах - всемирное. Для получения местного времени необходимо прибавить поправку, которая в Nanyue равна 8 ч.

Смотрите также архив погоды в соседних городах и на ближайших метеорологических станциях:

Погода в Changsha (Китай) (105 км)
Погода в Shaoyang (Китай) (123 км)
Погода в Lingling (Китай) (161 км)
Погода в Chenzhou (Китай) (170 км)
Погода в Yichun (Китай) (175 км)
Погода в Wugang (Китай) (215 км)
Погода в Changde (Китай) (219 км)
Погода в Jian (Китай) (224 км)
Погода в Yueyang (Китай) (234 км)
Погода в Yuanling (Китай) (261 км)

Пояснения к столбцам:

Ветер - указаны скорость ветра в м/с - средняя за 10 мин, порывы в срок и между сроками (в фигурных скобках) и направление, откуда дует ветер: С - северный, СВ - северо-восточный, В - восточный, ЮВ - юго-восточный, Ю - южный, ЮЗ - юго-западный, З - западный, СЗ - северо-западный.
Видимость - горизонтальная дальность видимости в метрах или километрах. При видимости от 1 до 10 км при отсутствии осадков обычно наблюдается дымка, при ухудшении видимости до 1 км и менее - туман. В сухую погоду видимость может ухудшаться дымом, пылью или мглою.
Явления - указаны атмосферные явления, наблюдавшиеся в срок или в последний час перед сроком; фигурными скобками обозначены явления, наблюдавшиеся между сроками (за 1-3 часа до срока); квадратными скобками обозначены град или гололедные отложения с указанием их диаметра в мм.
Облачность - указаны через наклонную черту общая и нижняя облачность в баллах и высота нижней границы облаков в метрах; квадратными скобками обозначены формы облаков: Ci - перистые, Cs - перисто-слоистые, Cc - перисто-кучевые, Ac - высококучевые, As - высокослоистые, Sc - слоисто-кучевые, Ns - слоисто-дождевые, Cu - кучевые, Cb - кучево-дождевые. Подробнее классификацию облаков см. в Атласе облаков (PDF).
T - Температура воздуха - температура, измеренная на высоте 2 м над землей.
Td - Температура точки росы - температура, при понижении до которой содержащийся в воздухе водяной пар достигнет насыщения.
f - Относительная влажность воздуха - влажноcть воздуха, измеренная на высоте 2 м над землей.
Te - Эффективная температура - температура, которую ощущает одетый по сезону человек в тени. Характеристика душности погоды. При расчете учитывается влияние влажности воздуха и скорости ветра на теплоощущения человека.
Tes - Эффективная температура на солнце - температура, которую ощущает человек, с поправкой на солнечный нагрев. Характеристика знойности погоды. Зависит от высоты солнца над горизонтом, облачности и скорости ветра. Ночью, в пасмурную погоду, а также при ветре 12 м/с и более поправка равна нулю.
P - Атмосферное давление - приведенное к уровню моря атмосферное давление.
Po - Атмосферное давление - измеренное на уровне метеостанции атмосферное давление.
Tmin - Минимальная температура - минимум температуры воздуха на высоте 2 м над землей.
Tmax - Максимальная температура - максимум температуры воздуха на высоте 2 м над землей.
R - Количество осадков - Количество выпавших осадков, мм. При наведении курсора мыши на число - период времени, за который выпало указанное количество осадков.
S - Снежный покров - Высота снежного покрова, см. При наведении курсора мыши на число - состояние снежного покрова и степень покрытия местности в баллах.